User: anonymous   Login
Location: Hungerford
(51.4167°N, 1.5167°W)
Time: 03:30:26
(UTC+00:00)
Language:

Cosmos 1626 - Orbit

View from above orbital plane
View from above orbital plane
View from above satellite
View from above satellite

Ground track
Ground track

The orbit data is extracted from the following two-line orbital elements,

1 15494U 85009A   20332.79969256 +.00002314 +00000-0 +93034-4 0  9991
2 15494 082.4810 067.4131 0001606 003.8712 356.2537 15.24430703960267
Epoch (UTC): 27 November 2020 19:11:33
Eccentricity: 0.0001606
inclination: 82.4810°
perigee height: 491 km
apogee height: 493 km
right ascension of ascending node: 67.4131°
argument of perigee: 3.8712°
revolutions per day: 15.24430703
mean anomaly at epoch: 356.2537°
orbit number at epoch: 96026

The dashed part of the orbit path shows where the satellite is in the earth's shadow,  

DLR